Date String (YYYY-MM-DD hh:mm:ss) UTC,Instrument flags,Ambient pressure (hPa),Sample flow (lpm),Bypass flow (lpm),Sample temperature (°C),Ambient temperature (°C),ASC tube jacket temperature (°C),LED temperature (°C),Box temperature (°C),Sample RH (%),Span deviation,Mass concentration (μg/m³),Mass concentration (μg/m³),Mass concentration (μg/m³)
DateTimeUTC,F1_M11,P_M11,Q1_M11,Q2_M11,T1_M11,T2_M11,T3_M11,T4_M11,T5_M11,U1_M11,ZSPAN_M11,X2_M11,X0_M11,X1_M11
2021-08-25 17:00:00,,0833.8,5.00,0.00,29.4,26.8,00.0,38.6,31.0,33.5,0002.3,0017.02,0026.65,0015.49
2021-08-25 17:01:00,,0833.8,5.00,0.00,29.4,27.2,00.0,38.6,31.1,33.8,0002.2,0017.13,0027.80,0015.54
2021-08-25 17:02:00,,0833.8,5.00,0.00,29.4,27.6,00.0,38.5,31.2,33.6,0002.1,0017.19,0027.30,0015.57
2021-08-25 17:03:00,,0833.7,5.01,0.00,29.5,27.9,00.0,38.5,31.2,33.6,0002.0,0017.18,0027.36,0015.58
2021-08-25 17:04:00,,0833.8,5.00,0.00,29.5,28.2,00.0,38.5,31.3,33.3,0002.0,0017.17,0027.23,0015.58
2021-08-25 17:05:00,,0833.8,4.99,0.00,29.6,28.4,00.0,38.6,31.4,33.0,0001.9,0017.20,0027.84,0015.60
2021-08-25 17:06:00,,0833.8,5.00,0.00,29.6,28.6,00.0,38.6,31.5,33.0,0001.8,0017.15,0027.90,0015.57
2021-08-25 17:07:00,,0833.8,4.99,0.00,29.7,28.7,00.0,38.6,31.5,33.3,0001.8,0017.10,0027.66,0015.53
2021-08-25 17:08:00,,0833.8,5.01,0.00,29.7,28.1,00.0,38.6,31.3,33.4,0001.7,0017.14,0027.79,0015.52
2021-08-25 17:09:00,,0833.7,5.01,0.00,29.6,26.5,00.0,38.6,30.9,33.7,0001.6,0017.18,0027.97,0015.54
2021-08-25 17:10:00,,0833.7,5.00,0.00,29.4,26.1,00.0,38.6,30.8,33.8,0001.6,0017.18,0028.21,0015.52
2021-08-25 17:11:00,,0833.7,5.00,0.00,29.4,26.4,00.0,38.6,30.9,33.9,0001.5,0017.16,0028.40,0015.51
2021-08-25 17:12:00,,0833.7,5.00,0.00,29.4,26.8,00.0,38.5,31.0,33.8,0001.7,0017.13,0027.83,0015.53
2021-08-25 17:13:00,,0833.7,5.00,0.00,29.4,27.2,00.0,38.5,31.0,34.1,0001.8,0017.14,0027.77,0015.53
2021-08-25 17:14:00,,0833.7,4.99,0.00,29.4,27.6,00.0,38.5,31.1,34.1,0001.9,0017.06,0027.03,0015.51
2021-08-25 17:15:00,,0833.7,5.00,0.00,29.4,27.9,00.0,38.5,31.2,33.8,0001.9,0017.05,0026.62,0015.50
2021-08-25 17:16:00,,0833.7,5.02,0.00,29.5,28.1,00.0,38.5,31.3,34.2,0002.0,0017.04,0026.24,0015.52
2021-08-25 17:17:00,,0833.7,4.98,0.00,29.5,28.4,00.0,38.5,31.3,33.6,0002.1,0017.13,0027.25,0015.54
2021-08-25 17:18:00,,0833.7,5.00,0.00,29.6,28.5,00.0,38.5,31.4,33.6,0002.1,0017.17,0027.93,0015.58
2021-08-25 17:19:00,,0833.7,5.00,0.00,29.6,28.7,00.0,38.5,31.5,33.3,0002.2,0017.21,0027.75,0015.63
2021-08-25 17:20:00,,0833.7,5.01,0.00,29.6,28.4,00.0,38.6,31.4,33.2,0002.2,0017.31,0027.86,0015.69
2021-08-25 17:21:00,,0833.7,5.00,0.00,29.6,26.9,00.0,38.6,31.0,33.4,0002.1,0017.44,0027.86,0015.76
2021-08-25 17:22:00,,0833.7,5.00,0.00,29.4,26.1,00.0,38.5,30.8,33.6,0002.2,0017.52,0028.30,0015.82
2021-08-25 17:23:00,,0833.6,4.99,0.00,29.3,26.2,00.0,38.5,30.8,33.7,0002.3,0017.58,0028.35,0015.84
2021-08-25 17:24:00,,0833.6,5.00,0.00,29.3,26.6,00.0,38.5,30.9,33.7,0002.2,0017.60,0028.83,0015.87
2021-08-25 17:25:00,,0833.6,4.99,0.00,29.3,27.1,00.0,38.5,31.0,33.6,0002.2,0017.70,0029.35,0015.92
2021-08-25 17:26:00,,0833.7,5.01,0.00,29.3,27.5,00.0,38.4,31.1,33.4,0002.1,0017.72,0029.63,0015.97
2021-08-25 17:27:00,,0833.6,4.99,0.00,29.4,27.8,00.0,38.4,31.2,33.5,0002.0,0017.72,0029.97,0015.99
2021-08-25 17:28:00,,0833.6,5.01,0.00,29.4,28.1,00.0,38.4,31.2,34.0,0002.0,0017.71,0028.87,0016.02
2021-08-25 17:29:00,,0833.6,4.99,0.00,29.5,28.3,00.0,38.5,31.3,35.1,0001.7,0017.75,0029.17,0016.06
2021-08-25 17:30:00,,0833.6,4.99,0.00,29.6,28.5,00.0,38.5,31.4,35.8,0001.4,0017.72,0030.04,0016.07
2021-08-25 17:31:00,,0833.6,5.00,0.00,29.9,28.7,00.0,38.5,31.7,33.6,0001.4,0017.61,0030.78,0016.00
2021-08-25 17:32:00,,0833.6,4.99,0.00,30.2,28.6,00.0,38.5,31.7,32.6,0001.5,0017.47,0030.48,0015.91
2021-08-25 17:33:00,,0833.5,5.00,0.00,30.2,27.3,00.0,38.6,31.3,33.0,0001.3,0017.36,0029.97,0015.83
2021-08-25 17:34:00,,0833.5,5.00,0.00,30.1,26.1,00.0,38.6,30.9,33.3,0001.1,0017.30,0030.40,0015.80
2021-08-25 17:35:00,,0833.4,5.00,0.00,30.1,26.1,00.0,38.6,30.9,33.3,0001.1,0017.25,0029.87,0015.78
2021-08-25 17:36:00,,0833.4,5.01,0.00,30.0,26.5,00.0,38.6,31.0,32.9,0001.0,0017.23,0029.46,0015.75
2021-08-25 17:37:00,,0833.5,4.99,0.00,30.0,27.0,00.0,38.6,31.1,33.0,0001.0,0017.30,0029.40,0015.73
2021-08-25 17:38:00,,0833.4,5.01,0.00,30.0,27.4,00.0,38.7,31.2,32.9,0001.1,0017.37,0029.43,0015.74
2021-08-25 17:39:00,,0833.4,4.99,0.00,30.0,27.8,00.0,38.7,31.3,32.8,0001.2,0017.41,0029.85,0015.76
2021-08-25 17:40:00,,0833.4,5.02,0.00,30.0,28.1,00.0,38.7,31.4,33.0,0001.5,0017.44,0029.47,0015.76
2021-08-25 17:41:00,,0833.4,5.00,0.00,30.1,28.3,00.0,38.8,31.4,32.9,0001.7,0017.48,0029.92,0015.75
2021-08-25 17:42:00,,0833.4,5.00,0.00,30.1,28.5,00.0,38.8,31.5,32.8,0001.7,0017.49,0029.16,0015.76
2021-08-25 17:43:00,,0833.4,5.00,0.00,30.1,28.7,00.0,38.8,31.6,32.7,0001.7,0017.60,0030.51,0015.84
2021-08-25 17:44:00,,0833.4,5.01,0.00,30.2,28.4,00.0,38.9,31.5,32.4,0001.7,0017.66,0030.83,0015.87
2021-08-25 17:45:00,,0833.4,5.00,0.00,30.1,26.9,00.0,38.9,31.1,33.0,0001.8,0017.66,0030.25,0015.87
2021-08-25 17:46:00,,0833.3,5.00,0.00,29.9,26.0,00.0,38.9,30.9,33.4,0001.7,0017.71,0030.24,0015.88
2021-08-25 17:47:00,,0833.3,5.01,0.00,29.8,26.2,00.0,38.8,30.9,33.8,0001.6,0017.76,0030.43,0015.89
2021-08-25 17:48:00,,0833.3,5.00,0.00,29.7,26.6,00.0,38.8,30.9,33.6,0001.6,0017.73,0030.44,0015.87
2021-08-25 17:49:00,,0833.3,4.98,0.00,29.7,27.1,00.0,38.8,31.1,33.6,0001.7,0017.65,0030.31,0015.81
2021-08-25 17:50:00,,0833.2,5.00,0.00,29.7,27.5,00.0,38.7,31.2,33.9,0001.6,0017.57,0029.87,0015.74
2021-08-25 17:51:00,,0833.2,5.00,0.00,29.8,27.8,00.0,38.7,31.3,34.4,0001.3,0017.45,0029.84,0015.67
2021-08-25 17:52:00,,0833.2,5.01,0.00,29.8,28.1,00.0,38.7,31.4,34.3,0001.2,0017.30,0028.79,0015.61
2021-08-25 17:53:00,,0833.2,4.99,0.00,29.9,28.3,00.0,38.8,31.4,34.1,0001.3,0017.33,0029.15,0015.62
2021-08-25 17:54:00,,0833.2,5.00,0.00,29.9,28.5,00.0,38.8,31.5,34.1,0001.2,0017.27,0028.67,0015.58
2021-08-25 17:55:00,,0833.2,5.00,0.00,29.9,28.7,00.0,38.8,31.6,33.8,0001.3,0017.25,0028.68,0015.55
2021-08-25 17:56:00,,0833.2,4.99,0.00,30.0,28.0,00.0,38.8,31.4,33.6,0001.3,0017.26,0028.61,0015.56
2021-08-25 17:57:00,,0833.1,5.01,0.00,29.8,26.4,00.0,38.8,30.9,34.3,0001.7,0017.22,0028.94,0015.55
2021-08-25 17:58:00,,0833.1,4.99,0.00,29.7,26.0,00.0,38.8,30.7,34.1,0002.0,0017.17,0029.41,0015.54
2021-08-25 17:59:00,,0833.1,5.01,0.00,29.6,26.2,00.0,38.7,30.8,34.0,0001.9,0017.12,0029.38,0015.54
